This is the latest recevied weather packets stored in our database for station/object JR5VPD-10. If no packets are shown the sender has not sent any weather packets the latest 10 day(s).
| Time | Temp. | Humidity | Pressure | Rain* | Wind** | Luminosity | Snow |
|---|---|---|---|---|---|---|---|
| 1777825666 | 18.89° C | 71% | 1000.1 hPa | 0 mm | 0 m/s | - | - |
| 1777823866 | 18.89° C | 72% | 1000.1 hPa | 0 mm | 0 m/s | - | - |
| 1777822066 | 18.89° C | 71% | 1000.1 hPa | 0 mm | 0 m/s | - | - |
| 1777820266 | 20° C | 71% | 1000.1 hPa | 0 mm | 0 m/s | - | - |
| 1777818466 | 20° C | 71% | 1000.1 hPa | 0 mm | 0 m/s | - | - |
| 1777816666 | 20° C | 70% | 1000.1 hPa | 0 mm | 0 m/s | - | - |
| 1777814866 | 20° C | 70% | 1000.1 hPa | 0 mm | 0 m/s | - | - |
| 1777813066 | 20° C | 70% | 1000.1 hPa | 0 mm | 0 m/s | - | - |
| 1777811266 | 20° C | 70% | 1000.1 hPa | 0 mm | 0 m/s | - | - |
| 1777809466 | 20° C | 69% | 1000.1 hPa | 0 mm | 0 m/s | - | - |
| 1777807666 | 20° C | 68% | 1000.1 hPa | 0 mm | 0 m/s | - | - |
| 1777805866 | 20° C | 67% | 1000.1 hPa | 0 mm | 0 m/s | - | - |
| 1777804066 | 20° C | 67% | 1000.1 hPa | 0 mm | 0 m/s | - | - |
| 1777802266 | 20° C | 66% | 1000.1 hPa | 0 mm | 0 m/s | - | - |
| 1777800466 | 20° C | 64% | 1000.1 hPa | 0 mm | 0 m/s | - | - |
| 1777798666 | 20.56° C | 63% | 1000.1 hPa | 0 mm | 0 m/s | - | - |
| 1777796866 | 20.56° C | 61% | 1000.1 hPa | 0 mm | 0 m/s | - | - |
| 1777795066 | 21.67° C | 59% | 1000.1 hPa | 0 mm | 0 m/s | - | - |
| 1777793266 | 21.67° C | 59% | 1000.1 hPa | 0 mm | 0 m/s | - | - |
| 1777791466 | 20.56° C | 59% | 1000.4 hPa | 0 mm | 0 m/s | - | - |
| 1777789666 | 20° C | 62% | 1000.5 hPa | 0 mm | 0 m/s | - | - |
| 1777787866 | 20° C | 62% | 1000.8 hPa | 0 mm | 0 m/s | - | - |
| 1777786066 | 20° C | 63% | 1001.4 hPa | 0 mm | 0 m/s | - | - |
| 1777784266 | 20° C | 63% | 1001.9 hPa | 0 mm | 0 m/s | - | - |
| 1777782466 | 20° C | 63% | 1002.8 hPa | 0 mm | 0 m/s | - | - |
* Rain latest hour (hover to see other rain measurements)
** Current wind speed in m/s (hover to see current wind gust speed)